FREGAT DEB (TANK), 37756

Orbit data source: Space-Track

FREGAT DEB (TANK), 37756 is space debris in LEO originally from a launch on Mon, 18 Jul 2011 UTC launched from the Tyuratam Missile And Space Complex (TTMTR). Debris objects in space refer to the collection of defunct objects orbiting the Earth. Examples of debris include non-operational satellites, rocket bodies, and fragments generated from explosions, collisions, or faulty payload assembly.

Loading next visibility...
Identifier
37756, 2011-037B
Orbit
LEO
Country
Flag of CISCIS
Related business
Manufacturer
Lavochkin
Mission
Spacecraft
Bus & Motor
FREGAT SBB, Unknown motor
Mass
360 kg wet, 360 kg dry
Launch date (UTC)
2011-07-18 (15 years ago)
Launch vehicle
Unknown
Launch site
Tyuratam Missile And Space Complex (TTMTR)
Object type
Payload
Rocket body
Debris
Shape & HBR
Torus, 2.8 m
Radar Cross Section
6.703 m², Large (>1 m²)

Expand to show TLE details & history
Last TLE update: 13 hours ago

TLE from 13 hours ago
0 FREGAT DEB (TANK)
1 37756U 11037B   26255.10034854  .00001246  00000-0  27319-3 0  9993
2 37756  51.4333 234.2293 1803518 187.3684 169.6858 11.48236709625217
Epoch: 2026-09-12T02:24Z
TLE epoch observation values (Epoch: 2026-09-12T02:24:30.113Z)
Latitude
-0.00006°
Longitude
-153.01042°
Altitude
3,401.23 km
Speed
5.789 km/s
True Right ascension
15h 36m 55s
True Declination
0° 00' 00"
Sunlit
Object was in daylight at epoch
Visualization orbit readout
Latitude
Unknown
Longitude
Unknown
Altitude
Unknown
Speed
Unknown
Apparent Right ascension
Unknown
Apparent Declination
Unknown
Sunlit
N/A
Visualization observer readout
Local Sidereal Time
08:03:33
Azimuth
Unknown
Elevation
Unknown
Doppler factor
Unknown
Orbital elements
Apogee altitude
3,418.646 km
Perigee altitude
424.848 km
Semi-major axis
8,299.884 km
Eccentricity
0.18035
Inclination
51.4333°
RAAN
234.2293°
Arg. of periapsis
187.3684°
True anomaly
172.70968°
Mean anomaly
169.6858°
Eccentric anomaly
171.25658°
Mean motion
2.87035 °/min
Orbital period
125.42 mins
BSTAR
0.00027319
Loading maneuver chart data...
Computing Atmospheric mass density...
Loading historical data...
Loading historical data...
Loading historical data...
Loading historical data...
Loading historical data...
Loading historical data...
Loading historical data...

Documentation

Showing up to 5 results
|